Forecast Directory
U.S. Alerts
El Dorado Weather Logo
U.S. Radar Loop Conditions Map

U.S. Color Satellite North America Color Infrared Animated Satellite Loop

Interactive Wx Map Live U.S. Google Map Radar Thumbnail Image

US Precipitation 1 day, 24 hour precipitation map

US Temperatures US Conditions Map

US Climate Data US Conditions Map


NOAA NWS Hourly Roundups by Site
Regional Weather Roundup for Sacramento, CA
Select Site:  

000
ASUS46 KSTO 100315
RWRCA

NORTHERN AND CENTRAL CA REGIONAL WEATHER ROUNDUP
NATIONAL WEATHER SERVICE SACRAMENTO CA
800 PM PDT THU JUL 09 2020

NOTE: FAIR INDICATES FEW OR NO CLOUDS BELOW 12,000 FEET WITH NO
SIGNIFICANT WEATHER AND/OR OBSTRUCTIONS TO VISIBILITY.

CAZ001-003-100400-
NORTHWEST AREA

CITY           SKY/WX    TMP DP  RH WIND       PRES   REMARKS
CRESCENT CITY  FOG       56  56 100 CALM      30.07S VSB 1/4
UKIAH          CLEAR     80  46  30 N13       29.92S
$$

CAZ006-505>513-100400-
BAY AREA

CITY           SKY/WX    TMP DP  RH WIND       PRES   REMARKS
SANTA ROSA     CLEAR     87  44  22 NW8       29.86R
SAN RAFAEL     N/A       MM  MM  MM MISG
NAPA           CLEAR     74  55  51 S14       29.85R
CONCORD        CLEAR     86  48  26 W8        29.84R
OAKLAND CITY   N/A       72  MM  MM MISG
OAKLAND        CLEAR     68  53  58 W14       29.90R
SAN FRAN CITY  N/A       64  MM  60 MISG
SAN FRAN ARPT  CLEAR     62  49  62 NW24G30   29.89S
LIVERMORE      CLEAR     82  52  35 W6        29.86R
HAYWARD        CLEAR     68  53  58 NW7       29.89S
SAN JOSE ARPT  CLEAR     74  52  46 NW13      29.89R
$$
CAZ034-037-514>518-100400-
CENTRAL COAST

CITY           SKY/WX    TMP DP  RH WIND       PRES   REMARKS
WATSONVILLE    CLEAR     60  54  80 S8        29.92R
SALINAS        CLEAR     64  53  67 NW12      29.91R
MONTEREY       CLEAR     62  52  69 W9        29.94R
SAN LUIS OBISP CLEAR     61  53  75 NW5       29.91R
SANTA MARIA    CLEAR     58  51  78 NW7       29.92S
$$
CAZ015-016-100400-
NORTHERN SACRAMENTO VALLEY

CITY           SKY/WX    TMP DP  RH WIND       PRES   REMARKS
REDDING        PTCLDY    93  55  27 S9        29.78S HX  91
RED BLUFF      CLEAR     94  55  26 S10       29.80R HX  92
OROVILLE       CLEAR     94  52  24 S7        29.81  HX  91
$$
CAZ016>018-100400-
SOUTHERN SACRAMENTO VALLEY

CITY           SKY/WX    TMP DP  RH WIND       PRES   REMARKS
AUBURN         CLEAR     88  43  20 SW3       29.90S
BEALE AFB      CLEAR     90  56  30 SW6       29.78S
LINCOLN        FAIR      90  50  25 SW5       29.79S
MARYSVILLE     CLEAR     93  51  23 S8        29.79S HX  90
SAC INTL ARPT  CLEAR     92  57  30 S10       29.79S HX  90
MATHER AIRPORT CLEAR     93  48  21 SW10      29.80R HX  90
DOWNTOWN SAC   N/A       91  MM  MM MISG
SAC EXEC ARPT  CLEAR     89  51  27 SW7       29.80S
VACAVILLE      CLEAR     92  47  21 W10       29.82R
TRAVIS AFB     CLEAR     84  51  31 SW16      29.81S
$$
CAZ019>021-100400-
SAN JOAQUIN VALLEY

CITY           SKY/WX    TMP DP  RH WIND       PRES   REMARKS
STOCKTON       CLEAR     92  52  25 NW12      29.81S
MODESTO        CLEAR     93  45  19 N10       29.80R
MERCED         CLEAR     91  47  21 N7        29.80S
LEMOORE        CLEAR     90  45  21 N10       29.81R
FRESNO         CLEAR     94  43  17 NW12      29.80S HX  90
HANFORD        CLEAR     93  52  24 NW10      29.80R HX  90
PORTERVILLE    CLEAR     92  53  26 NW6       29.81R
BAKERSFIELD    CLEAR     94  41  16 N10       29.80R HX  90
$$
CAZ011-012-071-100400-
NORTHERN MOUNTAINS

CITY           SKY/WX    TMP DP  RH WIND       PRES   REMARKS
YREKA          CLEAR     81  48  31 N13G23    29.97R
MOUNT SHASTA   CLEAR     75  43  31 CALM      29.98R
ALTURAS        CLEAR     77  37  23 SW16      30.02R
$$
CAZ011-012-071-100400-
SIERRA NEVADA MTNS

CITY           SKY/WX    TMP DP  RH WIND       PRES   REMARKS
BLUE CANYON    CLEAR     70  42  36 CALM      30.16R
TRUCKEE        CLEAR     68  34  28 W5        30.17S
TAHOE VLY ARPT CLEAR     68  42  38 SW6       30.18R
MAMMOTH LAKES  FAIR      73  21  14 NW12      30.22S
$$



 

View Past Reports for Sacramento, CA.

Products Courtesy of NOAA-NWS
NWS Information Parsing Script by Ken True at Saratoga Weather - Script by SE Lincoln Weather.



Contact Us | Mobile
Never base any life decisions on weather information from this site or anywhere over the Internet.
Site is dedicated to our Lord & Savior Jesus Christ | Random Quotes of Jesus

Copyright © 2020 El Dorado Weather, Inc. | Site Designed By:  El Dorado Weather